North Myrtle Beach, SC

4:36 AM EDT on April 23, 2018 (GMT -0400)
Grand Strand

Weather History for KCRE - June, 2014

Change the Weather History Date:

Tuesday, June 17, 2014

  Actual Average Record
Temperature  
Mean Temperature 78 °F 77 °F  
Max Temperature 86 °F 85 °F 96 °F (1950)
Min Temperature 69 °F 70 °F 57 °F (1955)
Degree Days  
Heating Degree Days 0 0  
Month to date heating degree days 0 0  
Since 1 June heating degree days 0 0  
Since 1 July heating degree days 2586 2447  
Cooling Degree Days 13 12  
Month to date cooling degree days 212 179  
Year to date cooling degree days 494 391  
Since 1 June cooling degree days 212 179  
Growing Degree Days 28 (Base 50)    
Moisture  
Dew Point 70 °F    
Average Humidity 78    
Maximum Humidity 97    
Minimum Humidity 58    
Precipitation  
Precipitation 0.00 in 0.15 in 0.45 in (1999)
Month to date precipitation 0.45 2.60  
Year to date precipitation 13.43 20.00  
Sea Level Pressure  
Sea Level Pressure 30.16 in    
Wind  
Wind Speed 8 mph (SW)    
Max Wind Speed 16 mph    
Max Gust Speed 20 mph    
Visibility 6 miles    
Events Fog    
T = Trace of Precipitation, MM = Missing Value Source: NWS Daily Summary

Daily Weather History Graph

Daily Weather History Graph

Search for Another Location

Airport or City:

Astronomy

Jun. 17, 2014 Rise Set
Actual Time 6:03 AM EDT 8:27 PM EDT
Civil Twilight 5:34 AM EDT 8:56 PM EDT
Nautical Twilight 4:58 AM EDT 9:32 PM EDT
Astronomical Twilight 4:19 AM EDT 10:12 PM EDT
Moon No Moon Rise 11:03 AM EDT (6/17)
Length of Visible Light 15h 22m
Length of Day
14h 23m
Waning Gibbous, 73% of the Moon is Illuminated
Jun 17
Waning Gibbous
Jun 19
Last Quarter
Jun 27
New
Jul 5
First Quarter
Jul 12
Full

Hourly Weather History & Observations

Time (EDT) Temp. Heat Index Dew Point Humidity Pressure Visibility Wind Dir Wind Speed Gust Speed Precip Events Conditions
12:53 AM 79.0 °F - 71.1 °F 77% 30.17 in 10.0 mi SSW 9.2 mph - N/A   Partly Cloudy
1:53 AM 78.1 °F - 71.1 °F 79% 30.15 in 10.0 mi SW 8.1 mph - N/A   Clear
2:53 AM 75.0 °F - 71.1 °F 87% 30.15 in 10.0 mi Calm Calm - N/A   Partly Cloudy
3:53 AM 73.0 °F - 70.0 °F 90% 30.14 in 8.0 mi Calm Calm - N/A   Clear
4:23 AM 72.0 °F - 70.0 °F 93% 30.14 in 1.8 mi Calm Calm - N/A   Clear
4:32 AM 72.0 °F - 70.0 °F 93% 30.14 in 3.0 mi Calm Calm - N/A   Clear
4:53 AM 72.0 °F - 70.0 °F 93% 30.14 in 3.0 mi Calm Calm - N/A   Clear
5:10 AM 70.0 °F - 69.1 °F 97% 30.14 in 1.8 mi Calm Calm - N/A   Clear
5:30 AM 72.0 °F - 70.0 °F 93% 30.15 in 1.8 mi Calm Calm - N/A   Partly Cloudy
5:36 AM 71.1 °F - 70.0 °F 96% 30.16 in 0.8 mi Calm Calm - N/A   Mist
5:53 AM 69.1 °F - 68.0 °F 96% 30.16 in 0.8 mi Calm Calm - N/A   Mist
6:00 AM 70.0 °F - 69.1 °F 97% 30.16 in 1.2 mi Calm Calm - N/A   Partly Cloudy
6:09 AM 70.0 °F - 69.1 °F 97% 30.16 in 0.8 mi Calm Calm - N/A   Mist
6:24 AM 70.0 °F - 68.0 °F 93% 30.17 in 2.0 mi Calm Calm - N/A   Clear
6:35 AM 69.1 °F - 68.0 °F 96% 30.17 in 5.0 mi Calm Calm - N/A   Clear
6:40 AM 70.0 °F - 68.0 °F 93% 30.17 in 0.8 mi Calm Calm - N/A   Clear
6:42 AM 70.0 °F - 69.1 °F 97% 30.17 in 0.2 mi Calm Calm - N/A Fog Fog
6:53 AM 71.1 °F - 70.0 °F 96% 30.17 in 0.8 mi Calm Calm - N/A   Mist
6:55 AM 71.1 °F - 70.0 °F 96% 30.17 in 2.5 mi Calm Calm - N/A   Partly Cloudy
7:02 AM 71.1 °F - 70.0 °F 96% 30.17 in 5.0 mi Calm Calm - N/A   Partly Cloudy
7:53 AM 75.9 °F - 72.0 °F 87% 30.18 in 10.0 mi WNW 4.6 mph - N/A   Clear
8:53 AM 80.1 °F 83.6 °F 71.1 °F 74% 30.19 in 10.0 mi West 6.9 mph - N/A   Clear
9:53 AM 82.9 °F 86.5 °F 69.1 °F 63% 30.21 in 10.0 mi NW 4.6 mph - N/A   Clear
10:53 AM 84.0 °F 89.6 °F 72.0 °F 67% 30.20 in 10.0 mi South 8.1 mph - N/A   Clear
11:53 AM 84.0 °F 89.0 °F 71.1 °F 65% 30.20 in 10.0 mi SSW 9.2 mph - N/A   Clear
12:53 PM 84.9 °F 90.7 °F 72.0 °F 65% 30.19 in 10.0 mi SSW 12.7 mph - N/A   Clear
1:53 PM 84.9 °F 90.1 °F 71.1 °F 63% 30.17 in 10.0 mi South 11.5 mph - N/A   Clear
2:53 PM 86.0 °F 93.0 °F 73.0 °F 65% 30.16 in 10.0 mi South 11.5 mph - N/A   Clear
3:53 PM 84.0 °F 89.6 °F 72.0 °F 67% 30.14 in 10.0 mi SSW 10.4 mph - N/A   Clear
4:53 PM 84.0 °F 89.6 °F 72.0 °F 67% 30.13 in 10.0 mi South 15.0 mph - N/A   Clear
5:53 PM 84.0 °F 87.8 °F 69.1 °F 61% 30.14 in 10.0 mi South 12.7 mph - N/A   Clear
6:53 PM 82.0 °F 84.5 °F 66.9 °F 60% 30.14 in 10.0 mi SSW 13.8 mph - N/A   Clear
7:53 PM 81.0 °F 82.7 °F 64.9 °F 58% 30.15 in 10.0 mi SSW 11.5 mph - N/A   Clear
8:53 PM 78.1 °F - 66.0 °F 66% 30.16 in 10.0 mi SW 6.9 mph - N/A   Clear
9:53 PM 78.1 °F - 70.0 °F 76% 30.16 in 10.0 mi SW 9.2 mph - N/A   Clear
10:53 PM 79.0 °F - 71.1 °F 77% 30.16 in 10.0 mi SW 11.5 mph - N/A   Partly Cloudy
11:53 PM 79.0 °F - 71.1 °F 77% 30.14 in 10.0 mi SSW 13.8 mph - N/A   Partly Cloudy